{"data":{"norad_id":43262,"epoch":"2026-05-25T05:02:53.966976Z","epoch_age_seconds":56541,"freshness":"FRESH","line1":"1 43262U 18031D   26145.21034684  .00000864  00000+0  13162-3 0  9999","line2":"2 43262  98.0535 207.8486 0001989 109.4390 250.7034 14.76440749439291","mean_motion":14.76440749,"eccentricity":0.0001989,"inclination_deg":98.0535,"raan_deg":207.8486,"arg_perigee_deg":109.439,"mean_anomaly_deg":250.7034,"bstar":0.00013162,"rev_number":43929,"period_min":97.531851581265,"perigee_km":639.1855010991,"apogee_km":641.97754732804,"semimajor_km":7018.7185242136,"source":"CELESTRAK","updated_at":"2026-05-25T13:38:12.829786Z"}}